| time (UTC) | temp F | wind direction | speed knots | gust knots | rain 1hr in | rain 24hr in | rain mn in | humidity % | barometer mb |
| 20260508121604 | 38 | 0 | 0.0 | 0.9 | 0.00 | 0.01 | 0.00 | 96 | 1018.0 |
| 20260508120050 | 37 | 0 | 0.0 | 0.9 | 0.00 | 0.01 | 0.00 | 96 | 1017.8 |
| 20260508114556 | 35 | 0 | 0.0 | 0.0 | 0.00 | 0.04 | 0.00 | 96 | 1017.7 |
| 20260508113053 | 34 | 0 | 0.0 | 0.9 | 0.00 | 0.04 | 0.00 | 95 | 1017.8 |
| 20260508111558 | 34 | 0 | 0.0 | 0.9 | 0.00 | 0.04 | 0.00 | 95 | 1017.5 |
| 20260508110053 | 33 | 262 | 0.0 | 0.9 | 0.00 | 0.04 | 0.00 | 95 | 1017.5 |
| 20260508104548 | 33 | 0 | 0.0 | 0.9 | 0.00 | 0.05 | 0.00 | 94 | 1017.3 |
| 20260508103103 | 33 | 0 | 0.0 | 1.7 | 0.00 | 0.05 | 0.00 | 95 | 1017.2 |
| 20260508101549 | 33 | 0 | 0.0 | 0.9 | 0.00 | 0.05 | 0.00 | 94 | 1017.2 |
| 20260508100048 | 33 | 0 | 0.0 | 0.9 | 0.00 | 0.05 | 0.00 | 94 | 1017.1 |
| 20260508094603 | 33 | 0 | 0.0 | 0.9 | 0.00 | 0.05 | 0.00 | 94 | 1016.9 |
| 20260508093048 | 34 | 262 | 0.0 | 1.7 | 0.00 | 0.05 | 0.00 | 94 | 1016.8 |
| 20260508091555 | 34 | 0 | 0.0 | 0.9 | 0.00 | 0.05 | 0.00 | 94 | 1016.8 |
| 20260508090051 | 34 | 262 | 0.0 | 1.7 | 0.00 | 0.05 | 0.00 | 94 | 1016.6 |
| 20260508084548 | 34 | 262 | 0.9 | 1.7 | 0.00 | 0.05 | 0.00 | 94 | 1016.7 |
| 20260508083131 | 35 | 0 | 0.0 | 1.7 | 0.00 | 0.05 | 0.00 | 94 | 1016.6 |
| 20260508081557 | 35 | 0 | 0.0 | 0.9 | 0.00 | 0.05 | 0.00 | 94 | 1016.5 |
| 20260508080054 | 35 | 262 | 0.0 | 1.7 | 0.00 | 0.05 | 0.00 | 94 | 1016.4 |
| 20260508074548 | 36 | 0 | 0.0 | 0.9 | 0.00 | 0.06 | 0.00 | 94 | 1016.5 |
| 20260508073057 | 36 | 240 | 0.0 | 1.7 | 0.00 | 0.06 | 0.00 | 94 | 1016.3 |
| 20260508071556 | 36 | 0 | 0.0 | 0.0 | 0.00 | 0.06 | 0.00 | 94 | 1016.1 |
| 20260508070059 | 37 | 0 | 0.0 | 0.0 | 0.00 | 0.06 | 0.00 | 94 | 1016.1 |
| 20260508064610 | 37 | 0 | 0.0 | 0.0 | 0.00 | 0.07 | 0.00 | 94 | 1016.2 |
| 20260508063057 | 37 | 0 | 0.0 | 0.0 | 0.00 | 0.07 | 0.00 | 94 | 1016.2 |
| 20260508061602 | 37 | 0 | 0.0 | 0.9 | 0.00 | 0.07 | 0.00 | 94 | 1016.4 |
| 20260508054605 | 38 | 0 | 0.0 | 0.0 | 0.00 | 0.08 | 0.00 | 94 | 1016.6 |
| 20260508053102 | 38 | 0 | 0.0 | 0.0 | 0.00 | 0.08 | 0.00 | 94 | 1016.5 |
| 20260508051550 | 39 | 0 | 0.0 | 0.0 | 0.00 | 0.08 | 0.00 | 93 | 1016.3 |
| 20260508050059 | 39 | 0 | 0.0 | 0.0 | 0.00 | 0.08 | 0.00 | 93 | 1016.2 |
| 20260508044552 | 39 | 0 | 0.0 | 0.0 | 0.00 | 0.08 | 0.00 | 93 | 1016.1 |
| 20260508043056 | 40 | 0 | 0.0 | 0.0 | 0.00 | 0.08 | 0.00 | 93 | 1015.9 |
| 20260508041557 | 40 | 0 | 0.0 | 0.9 | 0.00 | 0.08 | 0.00 | 93 | 1015.9 |
| 20260508040048 | 41 | 0 | 0.0 | 0.9 | 0.00 | 0.08 | 0.00 | 93 | 1015.9 |
| 20260508034556 | 41 | 0 | 0.0 | 0.9 | 0.00 | 0.09 | 0.08 | 93 | 1015.8 |
| 20260508033100 | 41 | 0 | 0.0 | 0.0 | 0.00 | 0.09 | 0.08 | 93 | 1015.7 |
| 20260508031548 | 42 | 0 | 0.0 | 0.0 | 0.00 | 0.09 | 0.08 | 92 | 1015.5 |
| 20260508030109 | 42 | 0 | 0.0 | 0.0 | 0.00 | 0.09 | 0.08 | 92 | 1015.6 |
| 20260508024601 | 42 | 0 | 0.0 | 0.0 | 0.00 | 0.11 | 0.08 | 92 | 1015.2 |
| 20260508023052 | 43 | 0 | 0.0 | 0.0 | 0.00 | 0.11 | 0.08 | 91 | 1015.0 |
| 20260508021552 | 43 | 0 | 0.0 | 0.0 | 0.00 | 0.11 | 0.08 | 90 | 1014.9 |
| 20260508020050 | 44 | 0 | 0.0 | 0.9 | 0.00 | 0.11 | 0.08 | 90 | 1014.6 |
| 20260508014553 | 44 | 0 | 0.0 | 0.0 | 0.00 | 0.12 | 0.08 | 89 | 1014.5 |
| 20260508013045 | 45 | 0 | 0.0 | 0.0 | 0.00 | 0.12 | 0.08 | 88 | 1014.2 |
| 20260508011602 | 46 | 0 | 0.0 | 0.0 | 0.00 | 0.12 | 0.08 | 87 | 1014.0 |
| 20260508010105 | 46 | 0 | 0.0 | 0.0 | 0.00 | 0.12 | 0.08 | 86 | 1013.9 |
| 20260508004602 | 47 | 0 | 0.0 | 0.0 | 0.00 | 0.34 | 0.08 | 85 | 1013.8 |
| 20260508003056 | 48 | 0 | 0.0 | 1.7 | 0.00 | 0.34 | 0.08 | 83 | 1013.6 |
| 20260508001555 | 49 | 0 | 0.0 | 0.9 | 0.00 | 0.34 | 0.08 | 80 | 1013.5 |
| 20260508000054 | 50 | 0 | 0.0 | 0.9 | 0.00 | 0.34 | 0.08 | 79 | 1013.5 |
| 20260507234549 | 51 | 0 | 0.0 | 0.9 | 0.00 | 0.35 | 0.08 | 76 | 1013.5 |
| 20260507233052 | 52 | 0 | 0.0 | 1.7 | 0.00 | 0.35 | 0.08 | 74 | 1013.5 |
| 20260507231605 | 52 | 173 | 0.0 | 6.1 | 0.00 | 0.35 | 0.08 | 76 | 1013.4 |
| 20260507230052 | 53 | 0 | 0.0 | 6.1 | 0.00 | 0.35 | 0.08 | 72 | 1013.3 |
| 20260507224602 | 53 | 290 | 0.9 | 5.2 | 0.00 | 0.35 | 0.08 | 73 | 1013.2 |
| 20260507223053 | 53 | 165 | 0.9 | 4.3 | 0.00 | 0.35 | 0.08 | 71 | 1013.1 |
| 20260507221549 | 53 | 246 | 1.7 | 6.1 | 0.00 | 0.35 | 0.08 | 69 | 1012.9 |
| 20260507220046 | 53 | 296 | 1.7 | 7.0 | 0.00 | 0.35 | 0.08 | 67 | 1012.8 |
| 20260507214558 | 53 | 128 | 0.9 | 5.2 | 0.00 | 0.35 | 0.08 | 71 | 1012.7 |
| 20260507213104 | 53 | 186 | 0.9 | 5.2 | 0.00 | 0.35 | 0.08 | 70 | 1012.7 |
| 20260507211555 | 53 | 129 | 0.0 | 4.3 | 0.00 | 0.35 | 0.08 | 71 | 1012.7 |
| 20260507210055 | 54 | 0 | 0.9 | 6.1 | 0.00 | 0.35 | 0.08 | 70 | 1012.3 |
| 20260507204601 | 54 | 163 | 0.9 | 4.3 | 0.00 | 0.35 | 0.08 | 70 | 1012.4 |
| 20260507203054 | 53 | 115 | 0.9 | 6.1 | 0.00 | 0.35 | 0.08 | 75 | 1012.4 |
| 20260507201557 | 52 | 182 | 0.9 | 7.0 | 0.00 | 0.35 | 0.08 | 75 | 1012.7 |
| 20260507200053 | 52 | 0 | 0.9 | 3.5 | 0.00 | 0.35 | 0.08 | 78 | 1012.7 |
| 20260507194555 | 53 | 155 | 0.9 | 4.3 | 0.00 | 0.35 | 0.08 | 76 | 1012.5 |
| 20260507193107 | 52 | 138 | 0.9 | 6.1 | 0.00 | 0.35 | 0.08 | 76 | 1012.5 |
| 20260507191554 | 52 | 135 | 0.9 | 4.3 | 0.00 | 0.35 | 0.08 | 79 | 1012.8 |
| 20260507190104 | 51 | 144 | 0.0 | 7.0 | 0.00 | 0.35 | 0.08 | 80 | 1013.0 |
| 20260507184552 | 51 | 178 | 0.9 | 2.6 | 0.00 | 0.35 | 0.08 | 82 | 1013.3 |
| 20260507183057 | 51 | 196 | 0.9 | 5.2 | 0.00 | 0.35 | 0.08 | 78 | 1013.1 |
| 20260507181551 | 51 | 74 | 0.0 | 4.3 | 0.00 | 0.35 | 0.08 | 80 | 1013.2 |
| 20260507180053 | 51 | 148 | 0.0 | 5.2 | 0.00 | 0.35 | 0.08 | 82 | 1013.2 |
| 20260507174549 | 51 | 138 | 0.9 | 2.6 | 0.00 | 0.35 | 0.08 | 82 | 1013.1 |
| 20260507173054 | 50 | 163 | 0.0 | 3.5 | 0.00 | 0.35 | 0.08 | 87 | 1013.1 |
| 20260507171554 | 50 | 163 | 0.9 | 3.5 | 0.00 | 0.35 | 0.08 | 85 | 1013.1 |
| 20260507170055 | 49 | 202 | 0.0 | 3.5 | 0.00 | 0.35 | 0.08 | 88 | 1013.0 |
| 20260507164549 | 49 | 227 | 0.0 | 1.7 | 0.00 | 0.40 | 0.08 | 91 | 1013.2 |
| 20260507163052 | 48 | 159 | 0.9 | 2.6 | 0.00 | 0.40 | 0.08 | 92 | 1013.4 |
| 20260507161552 | 47 | 0 | 0.0 | 1.7 | 0.01 | 0.40 | 0.08 | 94 | 1013.4 |
| 20260507160100 | 46 | 128 | 0.0 | 0.9 | 0.01 | 0.40 | 0.08 | 93 | 1013.4 |
| 20260507154551 | 46 | 0 | 0.0 | 1.7 | 0.01 | 0.56 | 0.08 | 94 | 1013.6 |
| 20260507153056 | 46 | 0 | 0.0 | 2.6 | 0.01 | 0.56 | 0.08 | 95 | 1013.5 |
| 20260507151553 | 45 | 142 | 0.0 | 1.7 | 0.00 | 0.55 | 0.07 | 95 | 1013.7 |
| 20260507150053 | 45 | 0 | 0.0 | 1.7 | 0.00 | 0.55 | 0.07 | 95 | 1013.9 |
| 20260507144551 | 45 | 0 | 0.0 | 0.9 | 0.00 | 0.58 | 0.07 | 95 | 1013.7 |
| 20260507143051 | 45 | 0 | 0.0 | 0.9 | 0.00 | 0.58 | 0.07 | 95 | 1013.7 |
| 20260507141559 | 45 | 143 | 0.0 | 1.7 | 0.00 | 0.58 | 0.07 | 95 | 1013.7 |
| 20260507140107 | 45 | 92 | 0.0 | 1.7 | 0.00 | 0.58 | 0.07 | 95 | 1013.8 |
| 20260507134547 | 45 | 0 | 0.0 | 1.7 | 0.00 | 0.62 | 0.07 | 95 | 1013.9 |
| 20260507133051 | 45 | 0 | 0.0 | 1.7 | 0.00 | 0.62 | 0.07 | 95 | 1013.8 |
| 20260507131601 | 46 | 0 | 0.0 | 2.6 | 0.00 | 0.62 | 0.07 | 95 | 1013.9 |
| 20260507130100 | 46 | 184 | 0.0 | 2.6 | 0.00 | 0.62 | 0.07 | 95 | 1014.0 |
| 20260507124603 | 47 | 192 | 0.9 | 2.6 | 0.00 | 0.66 | 0.07 | 95 | 1013.7 |
| 20260507123057 | 47 | 0 | 0.0 | 1.7 | 0.03 | 0.66 | 0.07 | 95 | 1014.0 |